This demonstration page uses our WeatherBlox Daily Observations layout. Learn more.

Left ArrowRight Arrow

41.86663, -103.66717

Hourly Observations for April 20, 2016

Temp ( °F °C ) Dew Point ( °F °C ) Humidity (%) Winds ( mph kmh ) Pressure ( in mb ) Visibility ( mi km ) Precip ( " mm )
12:53 am 00:53 Mostly Clear 36 2.2 32 undefined 86 86 E 5 7 30.05 1018 10 16 N/A
1:53 am 01:53 Clear 35 1.7 31 -0.6 85 85 N N/A 30.03 1017 10 16 N/A
2:53 am 02:53 Clear 33 0.6 30 -1.1 89 89 NE 6 9 30.03 1017 10 16 N/A
3:53 am 03:53 Mostly Cloudy 33 0.6 30 -1.1 89 89 NE 3 6 30.02 1017 10 16 N/A
4:53 am 04:53 Partly Cloudy 33 0.6 30 -1.1 89 89 N N/A 30.03 1017 10 16 N/A
5:53 am 05:53 Cloudy 34 1.1 31 -0.6 89 89 N N/A 30.01 1016 10 16 N/A
6:53 am 06:53 Cloudy 37 2.8 33 0.6 86 86 NNW 3 6 30.03 1017 10 16 N/A
7:53 am 07:53 Cloudy 40 4.4 36 2.2 86 86 WNW 5 7 30.04 1017 10 16 N/A
8:53 am 08:53 Mostly Cloudy 43 6.1 37 2.8 80 80 W 7 11 30.03 1017 10 16 N/A
9:53 am 09:53 Sunny 50 10 40 4.4 68 68 WNW 6 9 30.02 1017 10 16 N/A
10:53 am 10:53 Sunny 53 11.7 39 3.9 59 59 WNW 9 15 30.01 1016 10 16 N/A
11:53 am 11:53 Cloudy 52 11.1 41 5 66 66 WNW 9 15 30.02 1017 10 16 N/A
12:53 pm 12:53 Partly Cloudy 55 12.8 40 4.4 57 57 NNW 14 22 30.00 1016 10 16 0.01 0.25
1:53 pm 13:53 Mostly Cloudy 57 13.9 38 3.3 49 49 NW 9 15 30.00 1016 10 16 N/A
2:53 pm 14:53 Mostly Cloudy 57 13.9 36 2.2 45 45 VRB 3 6 30.00 1016 10 16 N/A
3:53 pm 15:53 Mostly Cloudy 58 14.4 36 2.2 44 44 WNW 9 15 29.98 1015 10 16 N/A
4:53 pm 16:53 Mostly Cloudy 61 16.1 37 2.8 41 41 NW 9 15 29.97 1015 10 16 N/A
5:53 pm 17:53 Cloudy 60 15.6 37 2.8 42 42 W 3 6 29.97 1015 10 16 N/A
6:53 pm 18:53 Partly Cloudy 57 13.9 40 4.4 53 53 NE 5 7 29.98 1015 10 16 N/A
7:53 pm 19:53 Clear 50 10 40 4.4 68 68 E 6 9 30.01 1016 10 16 N/A
8:53 pm 20:53 Clear 46 7.8 38 3.3 73 73 N N/A 30.03 1017 10 16 N/A
9:53 pm 21:53 Clear 42 5.6 36 2.2 79 79 NNE 7 11 30.05 1018 10 16 N/A
10:53 pm 22:53 Clear 41 5 35 1.7 79 79 NNE 8 13 30.06 1018 10 16 N/A
11:53 pm 23:53 Clear 38 3.3 34 1.1 86 86 NNW 6 9 30.08 1019 10 16 N/A

Powered by AerisWeather